Tracking 29892 objects as of 21-Nov-2024
HD Live streaming from Space Station
objects crossing your sky now

STARLINK-31087

Track STARLINK-31087 now!
10-day predictions
STARLINK-31087 is classified as:


NORAD ID: 58597
Int'l Code: 2023-200J
Perigee: 565.6 km
Apogee: 566.8 km
Inclination: 43.0 °
Period: 95.8 minutes
Semi major axis: 6937 km
RCS: Unknown
Launch date: December 19, 2023
Source: United States (US)
Launch site: AIR FORCE EASTERN TEST RANGE (AFETR)
Your satellite tracking list
Your tracking list is empty




NASA's NSSDC Master Catalog

Two Line Element Set (TLE):
1 58597U 23200J   24325.77669662  .00000488  00000-0  51175-4 0  9999
2 58597  42.9999 225.5238 0000915 281.1107  78.9632 15.02542654 52196
Source of the keplerian elements: AFSPC